User: anonymous   Login
Location: Newark
(51.2000°N, 58.6167°E)
Time: 00:45:17
(UTC+00:00)
Language:

ISS - Orbit

View from above orbital plane
View from above orbital plane
View from above satellite
View from above satellite

Ground track
Ground track

The orbit data is extracted from the following two-line orbital elements,

1 25544U 98067A   20301.79789963  .00001666  00000-0  37945-4 0  9995
2 25544  51.6459  52.2999 0001733  68.3994  66.3277 15.49342883252570
Epoch (UTC): 27 October 2020 19:08:58
Eccentricity: 0.0001733
inclination: 51.6459°
perigee height: 417 km
apogee height: 420 km
right ascension of ascending node: 52.2999°
argument of perigee: 68.3994°
revolutions per day: 15.49342883
mean anomaly at epoch: 66.3277°
orbit number at epoch: 25257

The dashed part of the orbit path shows where the satellite is in the earth's shadow,  

DLR